Theta_e
362 361 362 361 361 360 360 357 359 360 361 361 364 365 365 363 360 362 362 364 364 365 365 365 364 363 362 362 364 364 364 364 364 363 362 362 363 363 363 363 363 363 364 364 362 362 362 362 363 362 362 362 363 363 364 363 364 364 364 363 364 364 363 363 363 363 364 363 362 362 362 363 363 363 363 362 360 359 359 358 357 355 359 358 358
357 362 362 364 360 361 360 359 359 362 362 364 364 364 364 365 365 365 365 365 365 364 365 365 364 363 363 362 363 364 365 365 364 363 363 362 363 363 363 363 362 363 363 363 361 361 362 361 362 361 361 362 363 363 363 363 363 363 363 363 364 363 363 362 362 363 365 364 363 363 363 363 362 362 362 362 362 360 359 359 359 358 359 359 360
358 360 360 363 361 361 360 361 363 363 363 364 364 363 364 364 365 365 364 365 365 364 364 365 364 363 363 363 364 364 364 364 363 362 362 362 362 362 362 363 363 363 362 362 361 361 361 361 361 361 361 361 362 362 363 363 363 363 363 363 364 364 364 363 363 364 361 361 366 365 364 364 362 362 362 362 362 361 361 362 361 359 359 360 359
359 359 361 364 361 358 360 362 363 363 364 365 363 362 363 363 364 364 364 364 365 365 365 365 365 364 364 364 363 364 365 363 363 362 362 362 361 362 361 362 362 363 362 362 362 361 361 361 361 361 361 362 362 363 362 363 363 363 363 363 363 364 364 363 362 362 363 364 364 361 359 359 360 361 360 361 361 360 361 359 360 360 360 360 360
358 358 360 364 364 360 359 363 363 364 364 364 363 362 363 363 362 362 362 362 364 365 365 364 364 364 364 364 363 363 364 363 363 361 360 361 361 362 361 362 362 362 360 360 361 362 361 361 361 362 362 362 362 363 362 364 363 362 363 363 364 364 364 364 362 361 360 359 359 359 356 358 359 360 361 360 360 360 360 360 359 360 360 361 361
357 358 358 359 360 366 362 362 363 363 363 364 363 363 363 363 363 363 362 362 362 363 363 363 364 364 363 363 363 363 364 363 361 359 357 359 358 361 360 361 361 362 363 362 362 361 361 361 362 362 362 362 362 363 363 363 363 363 363 364 364 364 364 362 362 362 359 361 358 355 356 357 357 358 360 360 360 360 360 360 359 359 360 359 360
356 357 357 358 359 363 364 362 364 363 363 363 363 363 363 362 363 362 362 362 362 362 362 363 363 363 363 363 362 363 363 361 359 358 357 358 360 361 358 357 357 358 362 362 363 363 362 362 362 362 363 362 362 363 364 363 363 364 364 365 364 364 364 364 363 362 361 361 360 355 354 355 357 358 360 359 359 359 359 360 360 359 359 358 358
356 355 357 357 356 363 364 363 363 364 363 361 362 362 360 362 361 362 362 362 361 361 362 362 363 362 362 361 361 362 362 359 359 357 357 359 361 360 360 360 360 361 362 363 363 363 362 362 362 362 360 361 364 364 363 364 364 365 365 364 364 364 364 364 362 362 361 361 359 357 356 355 357 357 360 361 358 359 359 359 361 360 359 358 357
356 356 358 355 358 364 364 363 363 363 362 363 362 361 362 361 361 362 362 361 361 361 362 362 361 361 360 360 360 359 358 357 357 357 359 360 361 361 360 360 360 360 362 363 362 362 361 362 362 362 362 363 362 364 363 363 363 363 364 364 364 364 363 362 361 362 359 361 359 357 356 355 353 356 359 360 359 361 360 357 358 359 360 359 358
357 357 356 354 359 364 363 363 363 363 363 362 361 362 361 362 362 361 360 361 361 362 362 360 360 359 359 360 360 359 358 357 356 357 359 359 361 360 362 361 360 360 362 362 362 360 361 364 363 362 363 363 363 363 363 363 363 363 364 363 363 363 363 362 360 359 360 359 358 359 358 357 355 356 359 359 359 358 359 360 360 360 360 359 359
355 354 354 356 361 363 363 363 363 362 362 361 361 362 361 361 362 361 361 362 362 362 362 360 359 358 360 359 359 359 359 357 358 358 358 359 360 361 361 361 360 359 359 359 359 360 360 360 360 363 363 363 362 362 362 362 364 364 364 364 364 363 362 361 362 360 361 357 356 355 358 361 358 358 359 359 359 359 360 360 361 359 360 359 358
355 355 357 362 369 364 363 362 360 360 361 361 361 361 361 361 361 361 361 362 362 361 361 360 359 359 359 359 359 360 360 361 361 360 360 360 361 361 361 360 359 357 356 356 353 359 360 362 362 363 362 362 362 363 363 364 364 363 364 362 362 361 360 361 360 362 359 355 354 354 354 355 358 358 359 359 359 360 359 360 360 359 359 359 358
353 353 356 360 364 362 361 361 362 361 362 362 361 360 361 361 361 361 360 360 360 361 360 360 360 359 359 360 360 360 360 360 360 359 360 361 360 360 360 360 359 357 356 355 354 357 359 360 362 361 362 362 363 363 363 363 364 363 362 363 361 360 358 356 358 355 355 355 355 356 356 357 359 359 359 358 358 359 359 358 359 359 359 359 358
350 351 355 359 362 367 362 362 362 361 361 361 361 360 360 359 359 359 360 360 360 360 360 359 360 359 359 360 360 360 360 360 359 361 360 361 361 360 359 359 358 357 356 356 357 357 359 360 361 362 362 362 362 363 363 363 364 363 363 363 362 362 361 357 357 355 355 355 357 357 357 359 361 360 360 360 359 359 359 359 359 358 358 359 358
350 355 357 362 361 364 365 362 361 361 361 361 358 359 359 359 359 359 359 358 359 360 358 358 360 360 359 359 359 361 361 360 360 360 360 361 361 360 359 359 358 358 357 356 358 358 361 361 362 362 362 363 362 363 363 363 362 362 361 361 361 361 361 350 352 354 354 355 355 355 355 359 359 359 360 360 360 359 360 359 359 358 358 358 358
353 354 359 359 363 365 365 363 361 360 359 358 354 353 351 354 358 357 356 357 358 359 357 358 359 359 358 359 359 360 360 360 360 360 360 360 360 360 360 360 360 360 360 360 360 358 362 361 362 362 362 362 363 363 363 362 361 361 360 359 359 360 363 366 354 355 354 355 354 354 353 357 358 359 359 360 360 360 360 359 359 358 358 358 357
353 357 356 359 362 363 361 364 362 361 358 355 354 353 354 355 356 356 356 356 357 357 358 358 359 359 358 356 360 360 360 359 359 360 359 361 361 360 361 362 361 361 361 360 359 361 362 362 363 364 362 362 363 363 364 363 361 361 360 358 358 359 363 365 351 353 354 355 354 353 355 357 358 359 359 359 358 358 358 358 357 357 358 358 357
354 358 357 358 361 362 361 360 364 363 356 355 354 355 354 355 356 358 358 357 357 358 358 358 358 359 358 358 358 358 360 360 360 359 360 361 360 361 361 361 361 361 361 361 361 360 361 363 364 363 363 363 363 364 363 363 361 360 359 358 357 358 362 367 353 354 354 354 354 355 355 359 358 359 358 357 357 357 357 358 358 357 357 357 357
352 354 356 358 358 360 359 364 366 364 357 355 355 356 357 356 357 358 357 357 358 359 359 359 359 359 358 359 359 360 360 359 358 359 361 360 360 360 361 361 361 362 362 362 362 362 362 363 363 363 363 363 363 363 363 362 362 360 358 358 358 358 364 364 355 356 355 354 355 354 356 358 358 358 358 357 356 356 357 356 357 357 357 356 356
354 355 354 356 358 359 363 363 365 361 356 356 356 357 357 358 358 357 358 359 358 358 358 359 359 359 359 358 359 360 359 355 359 358 360 360 360 361 361 361 361 361 362 362 363 363 362 362 363 363 362 362 362 362 362 362 362 360 360 361 356 363 359 353 354 354 354 354 357 357 359 358 358 358 358 359 358 357 357 356 357 357 356 356 355
352 355 354 355 354 359 360 362 363 361 357 357 358 359 358 359 359 357 357 358 358 359 359 359 359 359 360 360 360 361 358 355 358 359 359 361 360 360 361 361 361 362 362 361 362 361 361 362 363 363 362 362 363 362 362 361 360 360 362 358 363 363 353 356 355 357 356 356 356 358 359 359 358 357 359 359 359 358 357 356 357 357 357 356 355
351 354 355 356 357 356 360 360 363 361 357 360 358 359 359 358 356 357 358 359 359 359 360 361 359 361 357 361 362 361 357 356 358 359 361 361 360 361 361 361 361 362 361 361 360 361 361 361 362 363 363 362 363 363 364 362 361 361 359 363 363 354 357 355 354 356 355 356 358 359 359 359 358 358 358 359 358 358 357 357 357 357 358 357 356
349 354 354 354 358 360 361 361 359 362 361 359 356 356 359 358 358 358 359 358 359 359 360 360 360 362 363 362 362 361 358 359 359 360 361 360 361 361 361 361 362 362 360 360 361 362 362 361 362 363 364 364 365 366 363 363 364 364 364 362 358 354 356 356 355 354 356 356 358 360 359 359 358 359 359 359 359 358 358 358 357 357 358 357 357
348 352 354 355 356 357 358 362 362 363 364 356 352 360 361 364 361 358 360 360 359 359 360 359 359 359 359 363 361 361 359 359 360 361 360 360 360 362 362 361 361 361 361 361 361 361 361 362 363 364 364 366 366 358 356 359 363 365 363 353 354 353 355 356 353 354 356 355 356 359 358 358 357 357 359 358 358 359 358 357 357 358 357 357 357
350 355 356 355 357 359 361 362 363 362 361 358 360 357 358 357 354 358 361 362 360 358 359 358 360 361 363 359 359 358 359 359 361 361 361 361 361 361 362 363 363 363 362 362 360 362 363 363 364 363 366 362 360 360 357 355 357 353 353 353 352 355 350 351 352 354 358 357 360 359 360 357 357 357 357 358 358 358 358 357 357 357 358 357 357
352 354 355 356 357 359 361 362 359 362 361 366 355 360 363 358 360 358 357 360 358 359 362 362 361 363 364 360 360 360 358 359 359 359 360 360 360 359 360 363 361 361 362 360 359 362 362 362 362 361 362 358 356 357 355 353 350 348 350 353 352 353 353 351 352 354 359 357 361 359 358 359 358 357 357 359 358 358 358 357 357 357 358 358 357
348 353 355 357 358 359 363 362 359 364 359 359 359 359 356 358 361 359 361 356 357 360 360 361 362 364 360 359 359 358 358 357 358 362 359 360 358 360 361 362 360 359 361 358 360 361 361 359 362 359 358 352 349 354 354 352 353 347 349 350 353 351 354 352 353 352 355 356 357 359 359 357 360 358 359 358 358 358 357 358 358 358 358 358 358
348 351 353 353 355 358 363 363 362 361 362 361 361 357 357 357 356 359 356 357 360 359 358 358 360 364 360 360 355 357 358 359 361 361 361 361 357 358 358 354 355 357 363 362 361 359 360 362 359 356 354 354 351 350 346 350 350 354 349 350 350 353 357 351 353 356 355 361 362 361 356 360 359 360 360 359 359 358 358 359 358 359 359 359 359
346 351 352 350 354 359 361 361 362 362 360 359 359 357 355 355 358 359 356 357 357 362 358 360 360 363 362 364 359 356 360 360 359 360 361 358 357 357 359 356 358 359 363 357 360 361 358 355 357 356 355 355 351 352 351 349 353 352 350 350 349 354 355 355 355 352 354 359 358 358 361 360 360 361 361 361 361 361 361 360 360 360 361 361 361
347 351 352 353 353 356 358 360 361 361 360 358 360 356 355 358 360 361 358 360 360 357 361 357 358 361 361 363 357 358 359 357 356 356 354 356 357 358 358 357 356 359 360 358 359 358 355 354 356 355 352 352 351 352 354 349 347 347 352 352 351 350 356 354 356 354 356 354 356 357 361 360 361 360 361 362 363 364 363 363 362 362 363 363 363
348 350 352 354 356 355 357 361 362 363 361 359 359 359 359 358 360 360 362 360 359 359 359 357 357 357 360 365 361 358 353 352 353 354 355 357 359 360 359 358 356 356 360 360 361 360 358 358 354 353 354 353 350 350 348 348 349 348 350 348 346 354 354 358 355 354 349 357 359 361 359 364 359 361 361 361 362 362 363 364 364 363 365 365 365
347 350 352 354 353 354 356 358 360 362 361 358 359 358 360 360 361 361 360 362 362 358 356 355 355 357 357 356 358 354 356 354 357 359 360 358 358 359 360 360 358 358 361 360 359 362 359 358 362 363 360 358 352 350 353 347 350 344 351 346 350 353 353 357 348 343 347 354 359 360 364 361 363 362 362 362 362 360 360 362 364 364 363 365 366
349 351 352 354 352 353 356 358 359 360 359 357 356 357 357 357 359 361 362 359 359 357 351 351 355 358 360 360 360 359 362 362 361 363 361 359 358 361 358 361 362 363 363 360 361 364 362 354 359 363 364 357 353 349 350 350 348 350 351 348 351 348 350 350 355 352 349 352 357 357 361 366 364 366 365 364 363 363 363 362 362 365 365 365 366
350 351 351 352 353 352 355 356 357 358 359 357 359 357 358 358 359 360 363 360 358 352 352 356 357 357 362 363 363 365 365 365 365 364 360 360 362 361 362 361 361 362 364 364 359 359 360 358 354 357 356 357 352 354 350 349 347 348 352 349 352 354 354 353 351 343 353 349 352 361 359 360 364 367 365 367 367 365 365 364 365 366 367 366 366
349 349 352 354 353 353 354 354 357 357 359 358 358 359 359 357 355 358 360 357 356 354 352 356 356 358 361 363 366 365 366 365 366 365 360 360 359 359 359 359 363 364 361 364 361 362 361 359 360 359 360 356 355 355 352 351 345 342 351 356 351 350 356 348 351 346 349 354 357 351 358 356 358 360 365 365 368 369 369 367 367 367 366 366 367
350 351 353 352 353 354 355 355 355 356 359 359 360 361 358 358 359 360 360 358 356 354 356 356 357 357 359 363 366 367 365 366 367 366 363 361 358 359 361 365 366 364 362 366 365 359 363 364 361 361 361 356 357 353 355 351 350 348 348 351 349 350 352 352 352 349 348 355 356 356 358 358 358 357 361 358 366 369 367 368 366 365 367 367 366
350 352 351 353 353 354 355 352 355 355 357 357 361 361 361 358 357 357 357 359 356 356 356 358 358 361 362 359 368 368 371 371 373 370 364 362 361 363 362 366 367 364 367 368 360 361 364 357 364 362 361 365 356 350 351 353 348 348 345 349 346 349 354 353 352 348 346 352 355 350 354 353 358 361 365 358 362 364 367 370 368 369 367 364 363
352 353 353 353 352 352 354 354 356 356 358 359 361 360 360 360 358 357 360 356 355 355 358 359 361 361 361 364 369 369 370 369 372 372 367 360 363 362 364 366 365 361 367 364 363 360 361 359 362 362 365 365 360 352 350 349 345 345 349 344 351 348 343 350 353 354 350 348 353 351 352 351 352 351 352 357 355 363 364 368 369 370 367 368 365
351 352 355 357 354 354 357 357 356 357 357 360 364 362 360 362 357 358 360 358 361 356 357 357 356 358 362 366 368 367 369 371 371 372 366 361 362 364 365 369 365 368 368 365 360 362 362 361 360 361 367 365 356 352 350 350 346 346 342 345 344 353 354 346 355 357 351 348 348 353 346 357 349 354 358 359 358 359 364 366 368 369 366 367 368
352 352 356 357 356 358 358 356 358 357 359 360 361 357 359 358 353 356 357 361 361 358 361 357 360 359 361 363 369 368 369 370 371 373 370 365 362 363 365 365 364 365 365 359 357 360 362 364 361 359 364 361 356 353 351 351 347 345 346 346 349 350 352 353 353 350 352 346 351 352 346 347 350 359 350 352 354 356 363 363 362 365 365 366 367
354 353 353 357 358 358 356 356 359 359 358 356 358 356 354 356 356 352 353 356 359 360 358 359 359 358 361 365 368 365 370 370 372 369 368 367 367 366 367 367 365 365 366 364 362 362 361 363 360 364 358 356 352 347 347 351 345 343 349 344 347 349 347 349 348 348 348 345 344 344 346 349 351 352 356 356 358 355 356 360 361 357 364 371 371
354 353 353 355 357 358 356 356 358 357 358 357 359 358 359 357 354 352 353 356 359 356 356 359 357 362 368 366 368 367 370 370 369 372 369 366 367 365 366 366 366 366 367 367 362 361 363 365 362 363 360 352 348 348 347 352 343 337 338 340 341 345 347 343 344 344 345 344 343 349 357 346 345 350 354 359 354 353 353 357 361 357 363 363 365
354 351 356 355 356 358 360 361 360 357 359 361 360 361 360 360 358 357 355 355 358 358 357 358 359 361 365 367 370 370 370 368 370 370 367 366 366 366 366 368 369 365 363 364 363 361 364 362 364 360 358 352 348 350 354 354 341 344 345 341 334 334 340 342 344 344 342 342 344 343 347 345 346 348 353 353 352 358 352 359 360 362 362 362 362
353 351 354 355 354 359 362 363 362 362 362 362 361 362 363 365 364 360 359 357 357 361 362 361 360 360 361 365 370 371 367 367 367 366 366 367 366 366 363 364 367 370 368 365 365 363 361 365 360 361 363 356 346 348 350 354 355 344 339 340 338 334 331 338 342 340 340 342 340 340 343 344 345 351 351 352 348 353 358 358 356 363 364 364 365
350 353 351 355 351 357 360 364 363 362 363 365 364 365 367 366 365 366 365 364 361 362 360 359 360 362 361 364 364 368 368 366 366 367 365 368 368 368 366 365 366 367 367 362 367 362 363 360 362 363 357 354 345 346 350 351 354 356 350 343 337 337 336 336 336 340 342 339 338 335 342 344 342 346 345 348 349 355 349 352 358 357 361 365 364
350 352 352 353 354 356 360 364 362 362 364 364 368 366 362 362 362 359 355 355 355 354 354 355 357 358 356 359 364 364 365 367 366 367 366 366 367 368 368 366 366 365 365 365 363 359 363 363 360 361 358 358 354 346 344 352 349 354 355 351 349 342 340 338 336 333 348 343 339 338 343 342 344 346 352 350 346 344 353 351 351 353 358 358 355
350 353 352 352 356 359 361 362 362 362 365 365 369 366 363 364 363 359 358 354 354 354 357 356 356 355 359 360 362 365 366 365 366 367 367 368 368 368 369 367 365 365 365 363 360 361 358 363 364 363 362 362 358 351 348 346 353 353 349 347 351 349 345 342 337 336 334 339 343 340 339 343 343 343 343 345 347 346 349 354 347 348 356 360 360
349 352 350 352 355 361 361 361 361 362 365 365 368 367 364 365 363 359 355 356 352 357 359 358 360 359 360 361 362 362 365 365 364 367 368 367 368 367 368 368 365 365 361 360 362 362 364 364 364 363 364 365 362 355 354 349 346 348 353 351 345 343 348 347 347 343 341 335 336 341 342 343 344 343 344 344 345 348 345 353 349 350 352 354 356
348 349 351 353 354 358 363 362 361 363 365 368 365 366 367 367 364 361 364 356 358 363 359 359 360 362 361 362 362 361 364 364 367 365 367 366 366 367 368 368 365 364 362 363 361 362 362 364 363 364 362 362 365 359 360 355 352 346 353 356 353 351 346 345 343 343 344 340 333 336 338 342 340 342 341 346 346 348 350 351 354 353 361 360 359
348 350 351 354 355 359 363 362 362 362 364 367 366 365 367 366 364 360 359 358 359 360 357 359 365 363 364 365 365 364 361 362 364 366 366 368 365 367 365 365 366 364 360 364 363 365 365 364 364 364 366 365 364 360 358 357 356 355 352 352 354 348 350 348 345 343 340 343 337 336 339 338 340 341 345 342 345 345 345 348 350 350 355 363 361
349 349 348 354 357 358 361 360 363 363 366 366 366 363 365 366 362 364 359 359 361 362 361 362 364 366 363 362 363 364 362 358 356 362 364 364 367 367 364 365 363 366 363 367 365 361 360 360 360 364 363 365 360 363 356 354 357 353 352 351 351 347 344 345 343 343 343 342 341 339 338 339 338 338 343 344 345 347 349 349 346 347 356 359 354
Wind_Speed
8 9 10 10 8 8 10 8 7 7 7 9 10 11 12 14 17 19 18 15 14 12 11 11 10 8 9 9 9 13 14 14 13 13 13 13 11 12 11 10 10 12 13 13 14 15 15 15 14 14 15 16 15 14 14 14 14 14 15 14 14 15 15 14 12 14 15 15 14 14 15 14 15 14 14 15 15 13 10 10 11 10 8 12 13
12 10 10 10 8 7 9 9 9 8 8 9 9 10 10 11 12 13 13 12 12 13 13 11 9 9 8 8 9 14 14 13 13 12 11 11 12 12 12 12 13 13 13 13 14 14 14 14 14 14 15 15 15 14 15 14 14 14 14 14 14 14 15 13 13 13 13 14 15 16 16 16 15 15 14 15 14 15 15 13 10 8 10 13 13
12 10 11 12 9 7 5 9 9 8 8 9 9 10 10 10 11 12 12 12 12 12 13 12 10 9 9 8 10 14 14 14 15 11 10 11 11 13 13 12 13 14 13 14 14 13 13 13 14 14 14 14 14 14 15 15 14 14 13 14 13 14 13 12 12 11 13 12 16 17 17 17 16 15 15 14 14 14 15 15 14 13 11 13 12
12 11 10 12 11 7 3 7 8 8 8 9 9 9 10 10 10 10 11 11 11 11 11 11 11 10 9 10 13 14 14 15 15 12 11 11 10 12 12 12 13 12 13 13 13 13 13 13 13 14 14 14 14 14 14 15 14 14 13 13 13 12 12 11 10 10 12 11 9 9 9 10 13 15 14 13 13 14 14 14 15 15 14 13 13
11 12 11 10 10 9 5 7 8 7 8 8 9 9 9 10 10 10 10 11 10 10 9 10 10 11 11 10 12 13 13 14 16 12 11 11 10 9 11 12 12 13 13 14 13 12 13 13 13 13 13 13 14 14 14 14 14 13 13 12 12 11 10 9 9 8 10 7 9 8 9 11 10 14 13 13 13 13 14 13 14 14 14 14 14
11 11 11 10 10 9 7 8 8 7 8 8 8 9 9 9 9 9 9 10 11 10 9 9 10 11 11 11 11 14 13 14 16 12 9 7 7 8 9 10 9 12 13 13 13 12 12 13 13 12 13 13 13 13 14 14 13 13 12 11 11 10 8 9 6 4 2 4 3 7 10 10 9 9 13 13 13 13 13 13 13 13 13 13 13
12 10 10 10 9 10 7 8 8 7 8 8 8 8 8 8 8 9 9 9 9 10 10 9 9 11 11 11 12 13 12 14 17 10 9 7 9 10 10 10 13 10 10 12 13 12 12 12 12 12 12 13 13 13 13 13 13 12 11 11 9 8 7 6 5 4 3 1 3 8 9 10 9 8 13 12 12 13 13 13 13 12 13 12 12
10 9 10 9 9 10 8 8 8 7 8 7 8 9 8 8 8 8 9 9 9 10 10 10 10 11 11 11 12 13 13 15 15 12 9 8 10 10 10 12 11 10 12 12 12 13 12 12 11 12 11 13 14 13 13 13 13 12 11 10 9 7 6 6 5 4 5 5 6 8 9 10 10 9 14 14 13 12 12 12 12 13 13 12 11
9 9 10 10 11 12 9 8 7 8 7 7 7 7 8 8 8 8 9 8 9 9 10 10 10 11 11 10 11 13 16 11 11 12 10 11 10 10 13 11 10 11 12 12 11 11 12 11 10 12 12 13 13 13 12 12 12 12 10 9 8 7 5 6 5 2 8 7 7 8 9 9 9 10 13 14 13 13 12 10 10 13 13 13 12
13 10 9 10 11 12 10 8 7 7 7 7 7 7 8 8 8 8 8 9 9 11 10 10 11 11 11 11 11 15 15 12 9 12 12 11 12 11 12 13 12 11 11 11 11 10 9 8 11 12 13 12 12 12 12 12 11 10 9 8 7 6 5 6 2 7 8 8 9 11 11 11 10 10 13 12 12 13 13 13 12 12 11 12 13
11 10 11 11 13 11 10 9 7 7 7 7 8 8 7 8 8 8 8 9 10 11 10 10 11 12 13 11 11 13 15 11 9 13 12 12 12 13 14 13 14 12 10 11 8 7 8 9 10 11 12 11 11 12 12 12 11 9 8 8 6 6 5 3 8 7 7 7 9 10 12 14 10 10 12 12 12 13 14 14 13 12 12 11 11
11 11 11 11 13 11 10 8 7 8 9 8 8 9 7 8 9 9 9 9 10 10 11 10 11 12 13 11 11 13 14 12 11 13 13 13 13 13 14 14 15 14 11 11 3 4 8 10 10 11 11 11 11 12 11 10 10 9 8 7 6 4 6 8 4 6 8 9 10 10 11 11 10 11 12 12 12 12 13 13 13 13 11 11 10
11 11 11 11 11 12 10 8 9 9 9 10 10 9 8 8 9 9 9 10 10 11 10 11 11 12 12 12 12 12 12 13 12 12 13 14 14 14 14 15 16 16 14 11 5 3 7 10 11 10 11 11 11 11 11 10 9 9 7 6 4 3 2 4 4 7 8 9 9 9 10 9 10 12 11 11 11 12 12 12 12 12 12 11 10
11 11 11 10 9 13 11 10 8 8 9 10 9 9 7 7 8 10 11 10 10 10 10 10 11 12 13 12 12 11 12 13 13 13 13 14 15 15 14 15 16 15 14 13 10 7 8 10 10 10 11 11 11 11 10 10 9 8 7 5 4 5 8 5 9 8 8 9 9 10 10 8 9 10 11 10 11 11 11 12 12 12 12 11 10
13 15 11 9 10 9 13 10 9 8 8 9 10 10 10 8 10 12 11 10 10 10 9 10 12 12 11 12 13 12 13 14 13 13 13 13 14 15 15 16 16 15 14 12 10 7 9 9 10 10 10 11 11 10 9 9 8 7 6 5 4 6 8 5 6 8 7 7 8 9 9 8 10 10 10 10 10 11 11 12 12 11 12 12 10
16 14 11 11 9 9 9 10 10 9 9 13 16 11 5 5 10 11 9 9 10 10 9 11 11 11 12 13 12 12 13 14 14 13 13 13 14 14 14 15 15 14 13 12 10 7 9 9 10 10 10 10 10 9 9 8 8 7 6 5 5 8 9 8 6 7 6 6 7 8 8 8 9 9 9 9 10 10 10 10 10 11 11 10 9
15 12 11 11 10 9 9 8 10 11 13 19 13 6 7 8 10 10 9 8 9 9 9 11 11 12 13 14 13 14 14 14 14 12 13 14 14 14 14 14 14 14 13 13 10 7 9 9 9 9 9 10 9 9 9 8 7 7 6 3 6 4 9 11 7 7 6 6 7 6 7 7 8 8 9 8 9 9 9 9 9 9 9 9 9
9 16 13 11 8 9 9 10 9 10 12 15 9 7 7 10 11 10 10 8 9 10 11 12 12 13 12 13 13 13 14 15 13 11 12 13 14 13 13 13 13 13 13 12 11 9 8 7 8 8 8 8 8 8 8 7 7 7 5 3 4 4 9 11 8 6 6 6 7 7 7 8 8 8 7 7 8 8 8 8 9 9 8 8 7
8 7 15 13 9 8 8 8 7 9 16 11 7 7 10 12 11 12 12 8 10 12 13 12 12 13 14 14 15 14 13 16 14 11 11 13 14 14 14 13 14 14 13 11 10 9 7 7 8 8 7 7 8 7 7 6 7 5 3 2 2 7 10 7 7 6 5 5 7 7 7 6 7 6 6 6 6 7 7 8 8 8 7 7 6
7 7 10 13 10 6 7 7 7 9 14 10 7 8 10 13 14 15 13 12 12 13 13 14 14 14 14 15 15 13 14 14 13 9 10 14 14 11 13 14 13 13 13 12 10 8 6 6 7 6 7 7 7 7 7 6 5 3 1 1 5 8 8 5 6 7 5 6 6 7 6 5 6 6 6 5 5 6 6 7 6 6 6 6 5
6 6 8 10 8 13 9 5 8 11 13 12 8 7 10 13 14 16 13 12 13 14 15 14 14 14 14 14 12 9 10 10 9 8 11 10 13 14 14 14 13 12 12 11 10 9 8 8 7 5 6 7 7 7 7 6 4 2 3 4 8 8 1 3 6 6 5 6 7 7 6 5 4 4 5 3 4 5 5 5 5 5 6 6 5
7 6 6 9 6 11 10 8 6 11 13 8 9 7 7 9 8 8 10 9 12 14 11 9 12 10 14 9 7 8 9 10 7 9 7 10 11 14 13 13 13 12 11 9 8 7 4 3 4 5 6 6 9 6 6 6 6 5 3 8 7 1 2 4 4 6 5 6 7 7 5 4 4 4 3 3 3 4 4 5 4 4 5 5 5
7 5 5 7 7 6 11 7 8 5 13 9 7 7 6 7 9 9 6 7 8 10 9 9 8 8 7 8 7 7 7 6 9 8 7 11 11 13 13 13 12 11 10 9 7 5 4 3 4 4 5 6 6 3 4 4 5 8 7 7 4 5 3 0 4 5 5 7 6 7 5 4 2 4 3 3 3 3 4 3 4 4 4 4 4
10 5 7 6 6 6 10 10 8 7 8 9 10 5 5 5 6 8 7 6 7 7 8 8 8 9 9 7 6 8 8 7 11 13 11 9 10 13 13 12 11 10 9 7 6 4 4 4 5 5 6 5 3 2 4 3 4 3 4 3 4 3 1 2 4 5 5 7 7 7 4 3 2 2 2 2 2 2 2 2 4 4 4 4 5
9 5 6 6 7 7 7 7 9 8 7 7 6 9 9 5 4 5 6 6 6 7 7 8 8 9 8 8 9 9 9 9 9 8 7 8 8 8 8 7 7 7 8 5 4 4 5 4 4 6 4 3 3 3 2 4 2 3 2 4 3 2 5 4 4 4 6 6 7 7 4 2 1 1 1 2 1 2 2 3 4 3 4 5 5
10 6 7 7 7 7 7 6 7 8 7 3 7 10 13 11 8 9 7 6 7 7 5 5 7 9 8 10 10 10 10 8 7 8 8 7 6 6 6 6 6 5 4 4 3 3 2 3 3 4 7 3 2 3 1 1 4 4 4 3 3 2 4 4 4 3 5 7 6 7 5 3 2 1 1 2 2 2 3 3 4 3 4 5 5
9 6 7 7 5 8 7 6 7 6 7 9 7 6 9 4 7 8 7 8 6 6 6 4 5 6 8 7 8 8 8 9 9 8 9 6 6 5 5 5 6 5 5 4 4 2 2 1 3 1 1 4 6 3 2 3 2 5 5 3 2 3 3 3 3 4 4 6 6 8 6 4 3 3 2 3 3 3 4 5 5 6 6 6 6
8 8 7 9 5 8 7 7 7 7 6 6 7 6 8 10 7 10 9 10 6 6 7 7 5 5 7 6 9 8 8 7 7 8 7 5 6 7 7 7 7 6 4 4 3 2 2 3 2 2 1 3 3 5 5 3 1 3 6 3 3 3 3 4 3 2 4 5 6 8 7 6 5 5 4 3 4 4 5 5 6 6 6 7 7
9 8 6 9 10 6 8 9 7 6 6 6 6 5 8 10 8 8 9 11 2 2 8 7 6 4 4 5 8 10 7 6 7 6 8 9 8 8 7 6 6 4 2 3 3 3 3 3 2 3 2 2 3 4 3 4 3 3 4 4 4 3 3 3 3 2 4 5 6 6 9 8 7 6 5 5 5 6 6 6 6 7 7 7 7
9 9 8 7 9 8 8 8 8 7 6 7 5 7 8 7 8 7 11 10 6 3 9 8 7 5 4 2 6 7 11 10 10 9 8 7 8 8 8 7 4 3 6 5 4 4 3 2 2 2 4 2 3 2 2 2 3 4 2 2 4 5 4 3 2 3 5 4 5 6 10 9 9 8 7 6 7 7 7 7 7 8 8 8 8
9 9 8 6 7 9 8 8 8 6 6 7 6 8 7 7 7 7 7 10 12 10 7 8 7 8 3 4 5 6 7 8 8 8 7 7 6 6 5 6 7 6 3 3 2 2 1 2 3 2 2 0 1 1 2 2 2 4 2 4 4 3 1 2 5 6 6 3 5 6 8 11 10 10 9 9 9 9 9 8 8 8 9 9 9
9 9 8 8 8 10 9 8 8 6 6 8 7 7 7 7 7 6 7 7 7 7 8 9 7 7 7 6 6 5 7 8 7 7 6 6 6 6 4 4 4 3 3 3 3 2 2 2 3 3 4 3 1 2 2 2 2 4 4 3 1 2 3 3 3 5 5 4 3 4 6 7 12 12 12 10 10 10 10 10 9 9 10 10 10
8 9 9 9 10 9 9 8 8 7 7 8 8 7 7 7 7 7 7 8 7 7 8 9 9 8 6 6 6 6 6 6 5 6 6 5 6 5 5 4 4 4 4 4 4 4 3 2 2 2 2 1 2 0 3 2 2 2 4 4 4 3 1 3 2 4 6 6 4 3 4 6 7 12 13 11 11 10 10 10 9 9 9 10 10
9 8 9 10 8 7 7 7 8 8 6 7 6 7 6 7 7 7 6 7 7 8 8 8 8 8 7 7 6 5 5 4 5 5 4 5 5 5 5 5 4 5 4 2 3 1 0 1 4 2 2 1 1 0 2 1 3 4 1 2 3 2 2 1 2 5 3 5 3 3 4 4 5 7 8 11 10 10 9 8 9 9 9 8 8
8 9 10 9 9 8 7 7 8 8 7 7 6 7 7 7 8 7 6 7 8 8 9 8 8 8 7 6 6 5 5 4 4 3 4 4 5 5 5 5 5 4 4 3 1 2 5 5 3 2 6 5 1 1 2 1 1 2 3 3 3 3 2 4 2 4 3 2 1 4 0 1 1 2 5 7 8 9 8 9 8 8 7 7 6
10 10 10 9 9 9 8 10 9 8 8 6 6 6 6 6 7 7 7 7 7 8 8 8 7 7 7 6 6 5 5 4 3 2 3 2 5 5 4 4 4 4 3 4 1 3 1 2 3 1 1 3 3 1 2 2 1 3 1 4 3 3 3 2 3 2 5 3 3 3 2 2 2 3 0 5 4 6 9 8 7 6 5 4 4
11 11 10 9 9 10 9 11 11 10 8 8 7 6 5 7 7 8 7 7 7 7 8 7 7 6 6 7 6 5 5 4 2 1 3 4 4 4 5 4 3 5 2 1 4 2 2 1 4 2 2 2 6 1 3 2 3 4 6 2 5 2 2 3 2 5 3 3 3 4 4 3 3 6 4 3 5 5 8 8 6 5 4 1 3
11 11 10 10 10 9 9 10 10 9 8 7 7 6 5 5 6 7 6 7 8 6 6 6 6 6 7 6 6 5 5 4 2 1 2 5 5 5 5 4 5 5 3 3 1 4 6 2 1 2 1 2 5 1 3 4 2 3 1 5 0 3 3 1 3 0 4 4 2 4 4 1 5 5 5 2 4 4 3 8 8 6 4 2 2
9 11 10 9 9 8 9 10 10 10 8 7 6 6 6 4 6 6 5 4 4 6 5 6 8 6 6 7 6 5 5 4 3 1 2 3 3 4 4 2 3 2 2 4 2 2 4 2 2 2 3 7 2 2 2 3 1 1 5 5 5 2 2 3 4 3 1 4 3 4 5 3 3 3 2 1 6 5 4 4 5 5 6 7 5
9 10 10 10 9 9 9 9 9 9 8 7 6 7 6 5 6 6 6 5 5 5 4 5 4 6 7 7 4 4 4 4 3 1 1 2 3 3 4 3 3 4 0 3 1 2 3 1 1 1 2 4 5 2 3 2 3 3 4 4 3 3 2 1 2 4 3 6 5 5 6 4 5 2 7 5 6 6 2 5 6 4 6 7 8
10 11 10 10 10 9 10 9 8 9 8 7 6 6 6 5 6 6 6 6 5 4 5 5 5 6 7 6 5 4 4 4 3 2 2 1 1 3 3 2 3 5 4 4 2 2 1 1 1 2 2 1 1 2 0 2 3 3 3 4 4 4 6 4 6 5 5 6 4 3 2 5 5 6 5 5 2 6 4 6 4 6 5 5 6
11 12 11 11 10 11 11 9 8 8 8 7 6 5 5 5 6 5 6 6 6 5 5 4 5 7 6 6 4 5 5 4 3 2 2 3 2 3 3 2 1 2 1 1 2 2 0 2 2 2 1 1 1 4 3 5 5 5 5 4 5 3 3 5 7 4 4 4 5 3 2 7 8 7 5 2 6 6 8 5 5 3 6 7 3
12 12 11 11 11 10 9 9 8 8 8 7 6 5 5 5 3 5 5 6 5 4 6 4 6 7 7 6 4 4 4 4 4 3 3 3 2 3 2 2 2 3 3 3 3 2 2 1 1 4 4 3 2 1 2 6 3 2 4 4 5 6 1 3 2 0 3 3 4 1 3 7 6 5 7 4 5 4 6 3 2 5 7 6 6
11 11 11 12 10 9 9 9 9 8 7 7 7 7 6 5 3 3 4 4 5 5 5 5 5 7 7 6 5 5 5 4 4 4 3 1 2 2 4 3 2 2 2 2 2 2 1 1 1 2 3 5 2 3 2 3 6 1 4 1 4 6 6 3 4 4 4 0 6 7 5 6 6 6 7 4 5 7 5 6 4 6 5 6 3
11 12 11 11 9 11 10 10 9 8 7 8 7 7 7 6 4 4 4 4 5 4 5 5 4 5 6 7 6 6 5 4 4 3 3 3 2 1 1 2 2 3 2 3 3 3 1 3 3 2 2 4 3 3 3 4 4 5 4 3 2 3 3 4 4 3 4 5 6 5 4 5 7 4 5 3 5 4 7 7 6 6 5 4 1
12 12 12 11 10 11 11 10 8 8 8 9 8 7 7 7 6 6 6 5 6 6 6 6 6 6 6 6 7 7 6 4 4 4 3 4 3 2 1 2 4 1 2 2 1 2 2 2 3 1 4 3 4 2 5 2 5 3 5 5 2 4 2 5 2 3 3 5 4 2 3 5 5 4 5 4 8 5 4 10 7 7 5 2 1
11 11 11 12 11 12 11 10 9 8 9 9 9 7 7 6 7 8 6 6 6 5 4 5 6 5 4 5 6 6 6 5 5 5 4 3 3 2 2 3 2 3 2 1 2 5 4 1 2 2 0 3 2 2 2 4 3 1 3 3 3 2 3 3 3 3 3 3 4 5 4 2 3 4 4 7 9 7 4 4 9 8 4 2 2
12 12 11 12 12 12 12 10 9 8 8 9 9 7 7 7 7 6 6 4 2 5 3 4 5 4 5 5 4 5 5 4 4 4 4 4 3 3 3 2 3 2 3 3 3 1 4 2 1 2 1 1 1 2 4 3 3 2 5 3 5 2 2 2 2 3 3 1 1 2 5 5 6 4 2 3 6 7 5 3 8 6 3 3 3
13 12 11 12 12 12 12 10 9 9 9 11 10 8 7 7 7 5 3 7 0 3 6 4 3 4 5 4 4 5 5 5 4 5 5 4 4 3 3 3 3 2 3 3 3 3 2 2 1 1 1 2 1 2 2 2 5 4 2 4 5 2 1 3 4 2 3 1 3 2 1 5 1 4 3 4 5 5 7 7 8 6 3 3 2
12 12 11 11 12 11 12 12 11 9 10 11 10 10 8 7 6 6 6 8 5 4 4 6 5 4 4 5 4 3 5 5 6 5 5 4 4 4 4 4 4 4 4 1 1 2 2 2 2 3 1 1 1 1 1 2 3 4 2 1 2 3 4 3 2 0 2 4 3 2 4 3 3 2 4 4 3 4 6 7 4 7 3 1 1
11 12 11 12 12 12 12 12 11 9 10 11 10 10 9 8 8 5 7 8 9 7 4 5 5 5 5 5 5 5 4 5 6 6 6 6 5 4 5 5 5 3 4 2 3 4 5 4 5 2 2 2 2 1 1 2 1 3 3 1 4 3 1 1 2 4 5 3 2 6 5 7 5 2 0 5 5 3 4 2 6 7 5 1 1
Wind_Direction
123 125 120 122 136 132 129 138 120 139 147 102 96 103 110 116 126 136 139 145 144 138 121 119 125 122 106 97 97 102 105 108 104 102 103 114 113 114 116 117 117 112 103 95 98 101 100 96 96 95 95 92 88 87 89 89 85 84 83 82 83 83 85 82 86 95 96 95 97 100 84 79 74 72 68 67 65 61 61 72 62 66 72 73 69
136 129 122 118 125 131 136 140 159 144 103 98 98 99 100 101 102 105 108 109 111 116 121 122 123 119 113 109 105 103 105 106 105 105 111 116 119 116 113 116 121 118 112 107 106 104 102 99 95 93 92 93 93 93 91 89 89 88 87 88 86 87 90 96 96 96 98 98 95 87 82 76 72 68 66 65 64 61 58 60 74 71 69 73 73
129 131 123 120 121 131 140 139 117 111 107 101 102 101 99 95 92 97 102 102 100 103 113 123 123 122 120 114 110 106 105 104 104 102 109 107 105 101 108 119 116 114 110 109 109 109 103 102 98 97 94 94 95 95 95 94 95 92 91 88 90 94 93 98 101 97 90 94 102 96 89 80 72 69 66 64 63 60 60 60 57 61 65 62 67
134 125 122 120 116 112 128 121 113 106 109 106 105 108 106 101 99 99 103 103 102 102 106 111 117 115 116 117 108 106 105 108 107 106 102 94 99 113 114 115 113 107 108 105 105 107 105 102 101 99 99 96 96 97 98 97 97 96 93 93 92 95 97 98 106 117 132 147 136 100 86 84 76 69 68 67 65 63 64 65 66 67 71 69 69
128 126 126 128 126 123 151 120 108 106 112 112 109 105 105 105 105 104 105 110 111 105 102 107 109 106 103 109 111 111 111 107 99 98 93 99 102 109 110 109 112 116 111 108 108 107 107 102 100 99 99 99 98 100 100 99 97 97 93 93 93 92 92 89 74 73 61 60 84 90 89 84 79 71 68 66 64 64 64 64 66 69 70 69 69
126 131 131 130 125 132 139 104 104 113 110 111 111 110 107 109 109 110 108 112 116 113 107 110 109 104 94 93 111 109 111 106 99 97 99 99 122 104 97 103 103 90 92 93 95 105 106 104 100 100 100 101 100 99 100 99 95 92 91 89 91 90 86 75 67 70 2 335 20 80 82 83 82 74 67 66 62 62 63 65 69 67 69 74 76
130 125 130 137 122 108 106 111 114 120 116 111 110 101 100 105 110 112 114 114 117 117 122 124 111 101 104 108 111 111 110 106 101 110 110 122 106 112 122 115 97 90 100 97 94 95 103 103 99 98 101 102 102 100 99 98 98 94 92 89 87 82 74 74 79 101 159 319 55 81 81 85 84 77 67 61 59 59 60 63 63 67 71 70 69
129 127 123 114 112 113 104 114 126 123 117 111 105 112 115 111 113 115 116 117 116 120 122 121 113 105 101 107 108 108 106 98 112 126 122 123 106 95 79 93 104 110 99 97 94 93 97 101 102 102 105 101 102 102 101 101 99 98 95 92 87 79 59 47 53 51 76 113 52 62 79 80 78 77 66 60 56 57 58 62 65 65 62 61 70
119 104 118 113 108 105 116 123 124 119 106 105 110 113 114 122 112 114 118 117 116 117 116 115 114 111 108 103 105 101 97 108 135 126 119 111 102 93 101 107 100 101 96 92 90 88 89 94 97 97 94 97 100 100 100 99 98 96 92 89 83 70 65 63 60 273 86 80 78 76 81 78 78 76 66 63 60 59 55 55 69 68 66 62 64
124 140 123 118 118 114 119 121 114 104 108 110 110 101 95 95 109 108 113 112 114 114 113 114 115 116 115 114 111 111 123 142 145 120 117 117 111 105 103 107 108 99 92 91 86 90 100 103 104 97 97 98 99 100 98 96 96 94 91 85 73 53 31 46 358 70 59 77 76 66 59 71 76 67 64 63 59 58 59 58 55 56 61 68 67
114 115 108 108 107 117 118 115 111 105 104 91 85 91 105 113 113 115 112 113 116 117 114 115 111 115 114 120 122 122 131 139 139 127 123 116 111 107 102 105 104 96 80 76 65 100 113 111 105 105 104 103 101 97 95 92 92 92 88 78 58 34 26 56 271 77 89 85 95 93 85 73 66 65 65 62 58 56 56 55 56 55 55 63 66
114 112 107 105 112 108 98 89 94 102 87 89 106 101 101 113 110 112 112 115 119 117 113 113 116 116 110 121 129 124 119 124 126 120 118 112 106 105 106 110 109 108 100 94 92 138 115 106 107 109 108 101 95 93 94 94 92 89 87 75 57 39 40 65 107 83 74 66 61 69 73 70 68 69 65 62 60 56 57 57 55 56 59 55 64
122 115 112 120 113 107 104 91 89 92 102 104 100 103 110 106 107 110 111 107 111 114 116 118 118 119 123 131 130 121 119 123 123 119 120 116 113 108 110 113 117 120 118 112 137 74 103 104 106 107 105 100 97 99 97 95 90 86 80 76 63 42 104 102 79 77 71 69 72 71 74 72 70 64 61 61 62 60 56 58 59 58 56 58 59
128 108 105 108 104 112 108 99 94 85 95 99 102 102 99 103 107 99 97 105 106 109 110 113 112 119 125 124 125 130 128 122 125 127 123 121 118 113 115 115 118 121 122 135 143 184 126 109 109 107 103 104 102 99 98 95 93 87 78 64 39 331 331 262 84 67 70 77 78 79 74 71 66 64 63 62 61 58 58 59 60 56 59 61 56
101 96 109 105 117 111 105 107 105 104 100 102 94 72 69 79 85 88 88 99 105 99 111 113 116 121 125 124 122 130 124 121 123 122 124 124 122 119 119 122 126 129 134 134 160 136 111 109 104 106 104 104 105 102 100 96 97 89 76 45 14 323 307 63 60 83 78 74 79 82 82 78 70 67 66 64 60 58 58 57 55 60 59 57 57
112 117 116 117 117 124 118 112 110 112 107 83 63 85 127 111 91 90 96 103 102 109 116 117 116 119 121 113 121 121 116 116 118 125 126 124 118 120 123 126 134 135 136 139 113 122 119 114 109 105 105 103 103 106 103 100 94 93 77 49 351 334 332 331 92 90 86 89 92 89 84 76 69 69 68 65 63 61 59 57 55 51 54 59 63
113 124 126 126 131 132 126 126 114 111 95 81 93 104 123 111 95 95 100 108 114 117 114 115 119 123 123 126 126 123 119 116 118 122 124 124 122 123 129 128 126 124 121 113 119 133 114 112 109 97 99 106 107 107 103 101 94 84 77 37 357 345 315 303 96 88 89 89 76 66 74 80 68 68 68 66 63 61 56 54 53 53 51 48 49
118 132 138 134 134 128 122 116 126 114 95 94 106 137 103 97 101 106 110 113 121 120 116 116 112 118 121 121 121 122 122 119 116 120 121 120 121 124 125 121 118 116 117 119 132 121 108 109 111 107 98 94 99 99 97 89 85 79 71 26 318 311 292 298 79 77 79 78 83 83 78 67 69 67 65 65 62 56 52 48 46 48 44 42 43
114 113 126 129 130 135 115 128 119 110 117 118 138 127 116 100 100 102 109 131 116 116 124 117 119 123 123 121 123 127 124 117 117 123 120 124 122 124 119 119 120 123 126 130 116 105 102 101 102 103 100 100 97 96 102 96 88 85 72 293 286 279 286 284 110 111 93 87 85 83 79 71 68 66 67 63 68 56 45 47 40 41 39 34 27
129 119 94 113 132 117 109 112 117 100 77 98 108 122 116 110 107 102 104 111 110 112 115 118 118 119 116 118 119 123 120 110 124 125 124 124 125 120 120 120 118 118 117 116 113 111 112 108 107 113 113 110 108 106 108 112 102 102 258 233 265 278 267 101 89 79 85 73 78 87 91 83 72 63 55 53 38 47 40 41 37 33 28 27 17
117 113 118 123 137 128 117 126 103 89 119 120 127 119 116 107 99 103 114 114 113 114 112 114 114 117 117 110 110 105 109 115 114 122 127 125 122 125 121 118 118 114 114 116 120 125 121 123 118 124 142 145 140 130 118 114 137 161 223 248 257 258 83 76 96 98 84 93 86 86 84 84 70 62 65 58 40 43 39 36 29 21 17 11 3
124 119 120 110 127 119 129 116 109 125 124 131 116 132 121 107 107 112 118 119 119 116 112 113 115 113 112 116 117 122 119 120 123 128 125 126 122 120 118 117 116 114 111 113 117 120 137 141 155 172 160 170 178 148 140 141 155 192 222 250 259 152 43 74 86 82 99 91 84 97 100 88 66 52 74 81 42 34 32 27 19 13 6 358 358
110 128 122 119 113 109 115 114 121 119 115 108 104 126 140 139 128 117 113 115 105 106 110 107 110 113 113 116 122 108 103 116 130 128 126 122 118 118 119 118 118 116 116 118 124 128 149 167 188 201 204 200 209 210 137 159 154 186 218 245 217 78 98 100 89 101 82 86 91 102 106 90 49 55 41 53 43 28 20 6 3 352 349 341 346
127 151 122 124 126 118 114 125 133 134 116 131 149 135 117 133 132 129 133 134 114 109 109 114 111 112 118 118 113 119 120 122 120 120 127 125 119 117 119 118 117 121 124 126 141 147 164 206 225 232 227 205 221 145 122 141 135 164 196 142 77 139 127 112 104 81 81 80 89 122 111 106 75 25 40 42 26 9 8 343 340 342 330 331 334
122 124 124 123 120 122 119 130 130 148 144 135 138 142 159 139 147 134 138 129 114 115 115 116 121 130 132 123 130 126 119 121 127 129 125 125 124 127 132 142 143 143 163 137 149 167 202 180 195 222 226 224 202 99 123 128 171 128 85 82 114 139 130 96 49 85 98 96 105 139 137 129 99 18 14 20 353 340 332 341 317 325 327 325 322
122 128 124 130 127 122 121 120 116 107 129 187 133 148 165 142 137 136 138 138 138 145 142 130 123 129 137 127 125 122 129 131 138 135 125 122 143 143 147 144 144 139 157 142 153 184 165 193 212 217 226 144 91 71 49 122 106 100 94 114 134 106 66 72 84 82 96 99 122 149 164 162 213 226 303 302 335 299 317 308 327 302 313 311 316
125 137 134 115 126 121 117 127 112 124 114 122 142 121 86 71 139 125 142 136 141 140 132 131 137 139 123 128 130 130 134 134 137 136 129 147 159 159 140 137 142 146 152 146 155 164 209 172 243 183 102 133 100 113 104 38 59 107 95 89 67 74 83 94 114 111 103 104 125 158 171 190 209 233 260 275 289 303 296 313 310 316 312 317 319
126 130 131 126 127 127 125 110 123 122 126 109 99 114 120 130 106 126 135 135 128 147 138 129 146 167 131 160 135 128 126 123 132 133 146 167 160 154 167 151 147 147 157 147 154 183 192 230 123 79 58 51 109 117 100 130 127 121 123 101 85 56 65 94 102 149 127 119 127 162 175 198 205 229 244 253 272 283 287 280 293 298 299 301 305
128 132 134 129 145 132 132 123 120 120 122 121 113 105 108 119 132 117 103 82 97 18 119 138 146 151 164 182 149 129 132 139 138 150 165 168 147 147 179 135 124 115 149 171 184 186 192 143 138 134 102 97 116 129 146 132 169 118 132 142 96 123 93 84 87 58 83 123 117 144 184 191 212 221 231 247 256 267 267 270 273 277 283 285 290
132 133 133 130 126 139 126 124 122 122 120 109 108 106 108 106 109 116 118 127 103 159 150 139 144 151 146 227 133 134 139 160 160 157 147 134 143 145 127 128 136 150 201 172 170 171 139 123 89 111 112 152 81 64 222 168 167 76 40 87 151 142 142 134 132 131 129 112 119 133 181 195 210 219 227 238 250 257 259 263 263 267 271 277 278
135 135 126 127 129 132 125 116 112 117 119 109 110 107 105 109 111 118 116 122 143 171 132 130 135 119 151 190 125 131 128 123 121 127 128 133 132 133 124 133 150 162 152 127 121 97 87 91 93 79 96 58 134 144 200 124 94 162 152 153 154 109 106 152 184 163 126 119 126 140 165 191 203 213 222 229 240 244 254 260 263 265 270 270 272
139 130 130 143 142 131 125 126 123 115 113 114 119 115 111 109 115 113 113 114 122 115 126 119 114 117 132 136 139 127 109 112 124 130 131 131 126 120 119 105 97 131 120 84 81 70 78 67 68 32 15 349 153 173 268 163 180 108 173 95 80 131 132 251 137 63 95 126 160 149 154 173 195 205 212 222 227 237 245 252 258 265 266 271 277
136 132 137 147 134 126 119 125 118 127 130 123 124 120 121 121 115 112 119 123 124 121 117 118 120 122 115 103 97 104 116 121 115 116 123 118 108 118 118 124 119 99 93 94 64 32 9 100 96 123 194 52 321 54 272 177 51 4 211 146 128 117 141 146 170 173 125 147 158 149 147 165 171 196 207 210 217 229 236 246 255 260 266 275 281
131 136 147 140 131 123 136 126 128 126 130 113 121 120 119 119 119 120 122 130 123 121 118 119 123 125 122 119 121 122 116 116 118 122 121 125 126 124 118 102 97 92 79 54 76 90 341 73 53 16 128 192 276 289 267 294 158 184 93 128 119 63 207 105 87 111 218 101 109 175 166 161 164 171 187 201 214 218 229 240 248 257 270 278 289
141 145 140 132 136 137 135 126 129 120 126 116 122 116 128 125 119 126 125 126 129 128 128 128 133 125 128 120 112 102 100 96 103 114 135 125 127 118 114 113 102 100 110 103 21 13 22 16 95 25 7 324 172 352 290 270 118 61 16 344 82 133 304 94 355 127 73 86 166 92 121 98 114 95 164 166 195 215 220 225 241 258 266 284 296
144 140 135 144 135 131 137 128 130 132 116 121 109 110 114 114 113 124 126 137 133 131 131 130 128 130 123 120 115 113 113 108 104 86 61 188 118 122 116 110 122 128 101 56 39 106 57 41 29 74 140 311 340 227 236 227 288 115 135 181 133 186 177 93 204 168 111 161 127 147 116 106 101 106 218 112 158 168 196 214 229 234 260 273 326
139 143 143 139 139 134 142 136 138 127 132 121 118 113 116 125 136 134 129 131 131 135 125 135 127 126 128 123 126 127 122 129 130 149 167 111 113 116 121 126 115 74 4 185 167 110 67 25 46 334 56 326 303 263 276 257 189 195 169 118 89 311 104 188 164 97 102 99 207 180 160 114 192 182 225 110 109 139 182 204 205 222 222 11 17
138 144 146 145 142 143 147 133 128 133 124 125 129 138 126 129 129 124 147 139 139 133 123 125 115 123 132 124 132 130 133 130 126 90 264 136 131 130 116 118 120 128 185 230 223 151 160 182 347 16 29 302 258 319 250 246 219 147 63 106 144 159 127 165 48 145 139 160 57 56 37 286 82 58 59 61 91 106 175 179 189 197 149 151 72
152 143 144 142 139 148 125 131 141 132 132 129 138 126 134 155 124 131 120 126 125 117 135 127 133 154 121 125 139 145 131 138 135 113 111 115 109 110 122 126 92 86 2 345 156 63 22 76 219 89 19 286 310 322 353 294 2 325 137 111 119 23 38 82 204 236 231 101 93 190 147 150 106 104 182 124 95 66 36 87 172 153 120 128 108
152 138 142 145 146 140 135 143 143 134 136 142 152 150 153 155 145 134 145 140 127 128 132 133 122 110 122 141 143 129 140 139 154 129 102 145 139 138 127 167 149 107 136 265 52 224 109 206 278 346 217 235 264 222 220 240 99 44 44 101 114 116 28 10 304 169 178 167 148 224 130 76 59 27 61 32 66 60 16 24 35 32 108 133 124
146 143 152 148 150 147 148 152 146 141 150 156 162 159 153 154 149 157 148 144 139 138 147 135 148 123 135 128 142 139 146 151 149 162 144 132 147 130 145 185 161 139 166 222 110 30 102 343 244 244 276 223 281 149 326 349 94 117 129 108 125 154 106 178 231 208 202 142 147 106 101 126 136 87 82 76 112 111 41 69 15 11 68 132 131
152 156 158 154 157 153 154 156 151 154 156 160 155 149 150 153 164 156 147 138 140 164 132 168 123 117 118 133 154 134 149 160 158 162 168 182 172 151 158 166 140 127 137 117 131 192 182 251 326 285 261 323 81 357 61 312 217 148 159 121 89 77 150 213 228 178 175 127 123 118 215 132 123 135 114 164 87 47 67 40 49 18 30 45 26
160 160 159 156 162 156 155 158 158 160 162 152 161 145 158 152 164 130 174 141 153 167 142 127 127 141 147 148 136 141 161 162 166 166 176 199 172 155 135 160 166 144 178 176 170 170 221 355 268 48 344 317 79 81 141 323 133 77 60 154 149 126 111 244 339 90 132 151 131 110 143 109 93 116 146 124 117 119 98 77 76 58 60 36 22
161 163 165 161 164 155 154 160 161 165 158 147 162 154 136 122 113 134 97 130 135 98 118 142 151 148 151 151 151 159 174 167 173 179 166 175 153 194 171 149 152 172 178 175 162 164 166 240 59 49 101 261 173 100 91 38 7 11 178 129 166 146 143 206 183 139 128 237 161 143 139 122 133 175 132 151 111 123 134 121 71 88 56 72 37
170 165 170 168 167 159 158 160 160 161 159 151 158 141 130 134 131 111 114 80 123 142 145 166 163 146 157 159 159 164 176 171 169 190 157 160 166 232 113 161 161 192 169 166 204 173 182 107 48 321 16 337 107 97 44 84 74 32 55 339 84 67 4 120 114 340 322 142 93 96 340 83 80 68 58 68 107 113 102 106 80 66 86 79 351
173 168 172 171 166 158 157 162 158 161 163 156 156 150 156 153 159 160 163 168 156 171 172 162 172 171 174 160 152 170 168 166 174 183 158 167 169 165 214 209 170 204 219 251 118 109 206 174 132 342 37 48 345 337 121 77 107 110 127 156 10 52 346 354 305 63 321 334 129 74 166 127 120 142 145 127 81 67 92 127 103 84 76 87 123
173 170 174 162 164 156 158 165 161 163 155 162 156 159 162 164 171 175 167 166 171 159 180 163 155 175 155 155 157 161 165 177 174 178 171 170 167 176 183 239 205 175 215 179 191 233 149 90 82 106 71 45 343 357 359 102 13 124 125 89 7 75 139 207 29 177 154 333 339 131 110 196 150 116 108 109 121 95 59 62 98 99 112 191 194
169 169 175 158 163 159 158 164 163 163 154 171 162 165 168 169 182 178 161 145 204 132 156 147 147 153 147 162 162 164 166 185 173 162 187 173 184 182 194 237 243 193 194 207 253 319 64 93 94 66 89 335 26 360 338 32 147 55 18 342 137 106 349 23 314 16 92 198 188 144 115 63 49 53 31 84 87 91 78 111 120 105 103 96 46
169 170 174 159 161 163 159 164 161 169 155 163 166 170 173 173 182 160 88 79 233 207 160 151 117 159 159 165 163 167 169 176 185 176 188 184 186 194 197 219 216 235 224 206 227 149 187 117 169 154 191 196 210 54 312 330 310 112 62 2 350 324 199 159 147 251 332 149 160 86 37 50 322 38 351 21 64 114 136 70 62 81 90 101 101
171 165 169 162 159 159 162 165 161 171 163 166 172 173 174 180 188 145 153 150 191 209 191 146 164 156 176 159 165 182 180 181 179 190 181 196 201 194 205 204 211 220 239 247 200 106 189 184 220 238 18 355 19 227 242 307 328 350 117 78 306 6 335 351 323 16 108 313 7 228 144 142 37 71 308 21 360 92 6 94 133 115 125 61 32
174 167 169 166 165 161 163 169 163 170 164 168 176 178 177 186 182 125 190 173 165 167 107 160 161 164 181 187 182 177 198 189 188 184 193 197 193 207 220 195 223 187 228 249 213 219 189 197 203 165 227 254 239 195 270 255 289 308 293 188 268 211 158 295 3 356 355 318 43 326 9 110 172 136 47 41 335 342 124 141 89 49 70 99 73